DW3200 Weather Reports


time (UTC)temp
F
wind
direction
speed
knots
gust
knots
rain 1hr
in
rain 24hr
in
rain mn
in
humidity
%
barometer
mb
20260901070012 52 5 0.0 0.0 0.00 0.00 0.00 66 1008.1
20260901064553 52 5 0.0 0.0 0.00 0.00 0.00 64 1008.1
20260901063052 54 5 0.0 0.0 0.00 0.00 0.00 62 1008.2
20260901061534 54 5 0.0 0.0 0.00 0.00 0.00 62 1008.3
20260901060034 55 5 0.0 0.0 0.00 0.00 0.00 61 1008.3
20260901054515 56 5 0.0 0.0 0.00 0.00 0.00 59 1008.4
20260901053018 57 5 0.0 0.0 0.00 0.00 0.00 58 1008.4
20260901051559 58 5 0.0 0.0 0.00 0.00 0.00 56 1008.5
20260901050055 58 5 0.0 0.0 0.00 0.00 0.00 55 1008.6
20260901044559 60 5 0.0 0.0 0.00 0.00 0.00 52 1008.7
20260901043040 61 5 0.0 0.0 0.00 0.00 0.00 49 1008.7
20260901041519 62 5 0.0 0.0 0.00 0.00 0.00 48 1008.9
20260901040019 64 5 0.0 0.0 0.00 0.00 0.00 45 1008.9
20260901034502 66 5 0.0 0.0 0.00 0.00 0.00 44 1008.9
20260901033002 67 5 0.0 0.0 0.00 0.00 0.00 41 1008.8
20260901031548 69 5 0.0 0.0 0.00 0.00 0.00 37 1008.9
20260901030043 71 5 0.0 0.0 0.00 0.00 0.00 36 1008.7
20260901024526 73 5 0.0 0.0 0.00 0.00 0.00 33 1008.6
20260901023026 74 5 0.0 0.0 0.00 0.00 0.00 32 1008.6
20260901021509 76 5 0.0 0.0 0.00 0.00 0.00 30 1008.7
20260901020027 77 5 0.0 0.0 0.00 0.00 0.00 28 1008.9
20260901014551 79 5 0.0 0.0 0.00 0.00 0.00 27 1008.8
20260901013047 80 5 0.0 0.0 0.00 0.00 0.00 25 1008.9
20260901011535 81 5 0.9 0.0 0.00 0.00 0.00 22 1008.9
20260901010027 82 5 0.9 0.0 0.00 0.00 0.00 21 1008.9
20260901004510 83 5 0.0 0.0 0.00 0.00 0.00 20 1009.1
20260901003008 83 5 0.0 0.0 0.00 0.00 0.00 19 1009.3
20260901001606 82 5 0.9 0.0 0.00 0.00 0.00 20 1009.6
20260901000052 83 5 0.9 0.0 0.00 0.00 0.00 19 1009.8
20260831234526 83 360 0.9 0.0 0.00 0.00 0.00 19 1009.9
20260831233038 83 350 1.7 0.0 0.00 0.00 0.00 19 1010.0
20260831231506 82 308 1.7 0.0 0.00 0.00 0.00 20 1010.2
20260831230004 83 276 0.9 0.0 0.00 0.00 0.00 19 1010.4
20260831224544 82 309 0.0 0.0 0.00 0.00 0.00 19 1010.7
20260831223045 82 310 1.7 0.0 0.00 0.00 0.00 19 1011.0
20260831221525 83 186 1.7 0.0 0.00 0.00 0.00 19 1011.3
20260831220023 81 93 2.6 0.0 0.00 0.00 0.00 19 1011.5
20260831214504 82 132 2.6 0.0 0.00 0.00 0.00 20 1011.7
20260831213100 82 204 1.7 0.0 0.00 0.00 0.00 20 1012.0
20260831211610 81 275 1.7 0.0 0.00 0.00 0.00 21 1012.1
20260831210046 80 87 1.7 0.0 0.00 0.00 0.00 21 1012.3
20260831204536 81 143 1.7 0.0 0.00 0.00 0.00 21 1012.4
20260831203016 80 86 0.9 0.0 0.00 0.00 0.00 22 1012.6
20260831201516 79 87 1.7 0.0 0.00 0.00 0.00 23 1012.9
20260831200054 78 84 1.7 0.0 0.00 0.00 0.00 22 1013.2
20260831194627 77 186 0.9 0.0 0.00 0.00 0.00 23 1013.3
20260831193034 77 284 0.9 0.0 0.00 0.00 0.00 23 1013.5
20260831191534 76 282 1.7 0.0 0.00 0.00 0.00 24 1013.7
20260831190009 75 175 0.9 0.0 0.00 0.00 0.00 25 1014.0
20260831184513 75 180 1.7 0.0 0.00 0.00 0.00 25 1014.2
20260831183059 74 144 0.9 0.0 0.00 0.00 0.00 27 1014.4
20260831181545 74 145 0.9 0.0 0.00 0.00 0.00 28 1014.7
20260831180031 73 146 0.9 0.0 0.00 0.00 0.00 30 1014.9
20260831174519 71 150 0.0 0.0 0.00 0.00 0.00 32 1015.0
20260831173106 70 150 0.9 0.0 0.00 0.00 0.00 33 1015.2
20260831171556 69 277 0.9 0.0 0.00 0.00 0.00 35 1015.4
20260831170036 66 279 0.0 0.0 0.00 0.00 0.00 38 1015.5
20260831164536 64 279 0.0 0.0 0.00 0.00 0.00 39 1015.8
20260831163014 62 279 0.0 0.0 0.00 0.00 0.00 44 1015.9
20260831161512 60 279 0.0 0.0 0.00 0.00 0.00 47 1016.1
20260831160055 59 279 0.0 0.0 0.00 0.00 0.00 52 1016.3
20260831154551 56 279 0.0 0.0 0.00 0.00 0.00 56 1016.3
20260831153050 52 279 0.0 0.0 0.00 0.00 0.00 65 1016.4
20260831151555 50 279 0.0 0.0 0.00 0.00 0.00 70 1016.3
20260831150040 47 279 0.0 0.0 0.00 0.00 0.00 78 1016.4
20260831144548 42 279 0.0 0.0 0.00 0.00 0.00 79 1016.4
20260831143036 41 279 0.0 0.0 0.00 0.00 0.00 82 1016.4
20260831141525 38 279 0.0 0.0 0.00 0.00 0.00 84 1016.4
20260831140004 37 279 0.0 0.0 0.00 0.00 0.00 84 1016.4
20260831134504 37 279 0.0 0.0 0.00 0.00 0.00 84 1016.2
20260831133046 36 279 0.0 0.0 0.00 0.00 0.00 84 1016.1
20260831131544 35 279 0.0 0.0 0.00 0.00 0.00 83 1016.0
20260831130025 35 279 0.0 0.0 0.00 0.00 0.00 82 1016.0
20260831124524 36 279 0.0 0.0 0.00 0.00 0.00 81 1016.0
20260831123004 37 279 0.0 0.0 0.00 0.00 0.00 82 1016.0
20260831121503 36 279 0.0 0.0 0.00 0.00 0.00 81 1015.9
20260831120046 37 279 0.0 0.0 0.00 0.00 0.00 81 1015.7
20260831114543 37 279 0.0 0.0 0.00 0.00 0.00 80 1015.9
20260831113023 38 279 0.0 0.0 0.00 0.00 0.00 80 1015.8
20260831111523 38 279 0.0 0.0 0.00 0.00 0.00 80 1015.8
20260831110005 38 279 0.0 0.0 0.00 0.00 0.00 80 1015.8
20260831104509 38 279 0.0 0.0 0.00 0.00 0.00 79 1015.8
20260831103052 38 279 0.0 0.0 0.00 0.00 0.00 78 1015.8
20260831101546 39 279 0.0 0.0 0.00 0.00 0.00 78 1016.0
20260831100027 39 279 0.0 0.0 0.00 0.00 0.00 78 1015.9
20260831094530 39 279 0.0 0.0 0.00 0.00 0.00 77 1015.9
20260831093009 39 279 0.0 0.0 0.00 0.00 0.00 77 1016.1
20260831091508 40 279 0.0 0.0 0.00 0.00 0.00 77 1016.1
20260831090050 40 279 0.0 0.0 0.00 0.00 0.00 76 1016.2
20260831084602 40 279 0.0 0.0 0.00 0.00 0.00 76 1016.3
20260831083038 40 279 0.0 0.0 0.00 0.00 0.00 75 1016.3
20260831081535 40 279 0.0 0.0 0.00 0.00 0.00 74 1016.4
20260831080014 41 279 0.0 0.0 0.00 0.00 0.00 73 1016.3
20260831074531 42 279 0.0 0.0 0.00 0.00 0.00 73 1016.3
20260831073138 43 279 0.0 0.0 0.00 0.00 0.00 72 1016.3
20260831071555 43 279 0.0 0.0 0.00 0.00 0.00 70 1016.1